User: anonymous
Location: Caltech
(34.1382°N, 118.1253°W)
Time: 16:14:19
(UTC-07:00)
Language:

UOSAT-12 - Orbit

View from above orbital plane
View from above orbital plane
View from above satellite
View from above satellite

Ground track
Ground track

The orbit data is extracted from the following two-line orbital elements,

1 25693U 99021A   14237.21108241  .00000142  00000-0  37703-4 0  5775
2 25693 064.5574 049.7629 0049374 279.3670 138.5241 14.80008622828133
Epoch (UTC): 25 August 2014 05:03:57
Eccentricity: 0.0049374
inclination: 64.5574°
perigee height: 595 km
apogee height: 664 km
right ascension of ascending node: 49.7629°
argument of perigee: 279.3670°
revolutions per day: 14.80008622
mean anomaly at epoch: 138.5241°
orbit number at epoch: 82813

The dashed part of the orbit path shows where the satellite is in the earth's shadow,  

DLR